Year,Month,Day,Hour,Minute,Value (Times are PST for temperature in C)
2007,10,01,08,38,9.70
2007,10,01,08,39,9.70
2007,10,01,08,40,9.80
2007,10,01,08,41,9.90
2007,10,01,08,42,10.00
2007,10,01,08,43,10.10
2007,10,01,08,44,10.20
2007,10,01,08,45,10.30
2007,10,01,08,46,10.50
2007,10,01,08,47,10.60
2007,10,01,08,48,10.80
2007,10,01,08,49,10.90
2007,10,01,08,50,11.00
2007,10,01,08,51,11.10
2007,10,01,08,52,11.20
2007,10,01,08,53,11.30
2007,10,01,08,54,11.30
2007,10,01,08,55,11.30
2007,10,01,08,56,11.40
2007,10,01,08,57,11.40
2007,10,01,08,58,11.40
2007,10,01,08,59,11.50
2007,10,01,09,00,11.60
2007,10,01,09,01,11.70
2007,10,01,09,02,11.70
2007,10,01,09,03,11.80
2007,10,01,09,04,11.80
2007,10,01,09,05,11.90
2007,10,01,09,06,12.00
2007,10,01,09,07,12.10
2007,10,01,09,08,12.20
2007,10,01,09,09,12.20
2007,10,01,09,10,12.30
2007,10,01,09,11,12.30
2007,10,01,09,12,12.40
2007,10,01,09,13,12.50
2007,10,01,09,14,12.50
2007,10,01,09,15,12.60
2007,10,01,09,16,12.60
2007,10,01,09,17,12.60
2007,10,01,09,18,12.60
2007,10,01,09,19,12.60
2007,10,01,09,20,12.60
2007,10,01,09,21,12.60
2007,10,01,09,22,12.60
2007,10,01,09,23,12.70
2007,10,01,09,24,12.70
2007,10,01,09,25,12.70
2007,10,01,09,26,12.70
2007,10,01,09,27,12.70
2007,10,01,09,28,12.70
2007,10,01,09,29,12.70
2007,10,01,09,30,12.70
2007,10,01,09,31,12.60
2007,10,01,09,32,12.60
2007,10,01,09,33,12.60
2007,10,01,09,34,12.60
2007,10,01,09,35,12.60
2007,10,01,09,36,12.50
2007,10,01,09,37,12.50
2007,10,01,09,38,12.50
2007,10,01,09,39,12.60
2007,10,01,09,40,12.60
2007,10,01,09,41,12.60
2007,10,01,09,42,12.70
2007,10,01,09,43,12.70
2007,10,01,09,44,12.80
2007,10,01,09,45,12.80
2007,10,01,09,46,12.80
2007,10,01,09,47,12.80
2007,10,01,09,48,12.80
2007,10,01,09,49,12.80
2007,10,01,09,50,12.80
2007,10,01,09,51,12.90
2007,10,01,09,52,12.90
2007,10,01,09,53,12.90
2007,10,01,09,54,12.90
2007,10,01,09,55,13.00
2007,10,01,09,56,13.00
2007,10,01,09,57,13.00
2007,10,01,09,58,13.00
2007,10,01,09,59,13.00
2007,10,01,10,00,13.00
2007,10,01,10,01,13.00
2007,10,01,10,02,13.00
2007,10,01,10,03,12.90
2007,10,01,10,04,12.80
2007,10,01,10,05,12.80
2007,10,01,10,06,12.80
2007,10,01,10,07,12.80
2007,10,01,10,08,12.80
2007,10,01,10,09,12.80
2007,10,01,10,10,12.80
2007,10,01,10,11,12.70
2007,10,01,10,12,12.70
2007,10,01,10,13,12.70
2007,10,01,10,14,12.70
2007,10,01,10,15,12.70
2007,10,01,10,16,12.60
2007,10,01,10,17,12.60
2007,10,01,10,18,12.60
2007,10,01,10,19,12.60
2007,10,01,10,20,12.60
2007,10,01,10,21,12.60
2007,10,01,10,22,12.60
2007,10,01,10,23,12.60
2007,10,01,10,24,12.60
2007,10,01,10,25,12.60
2007,10,01,10,26,12.60
2007,10,01,10,27,12.60
2007,10,01,10,28,12.70
2007,10,01,10,29,12.70
2007,10,01,10,30,12.70
2007,10,01,10,31,12.70
2007,10,01,10,32,12.70
2007,10,01,10,33,12.70
2007,10,01,10,34,12.70
2007,10,01,10,35,12.80
2007,10,01,10,36,12.80
2007,10,01,10,37,12.80
2007,10,01,10,38,12.80
2007,10,01,10,39,12.80
2007,10,01,10,40,12.80
2007,10,01,10,41,12.80
2007,10,01,10,42,12.80
2007,10,01,10,43,12.80
2007,10,01,10,44,12.80
2007,10,01,10,45,12.80
2007,10,01,10,46,12.80
2007,10,01,10,47,12.80
2007,10,01,10,48,12.80
2007,10,01,10,49,12.80
2007,10,01,10,50,12.80
2007,10,01,10,51,12.80
2007,10,01,10,52,12.80
2007,10,01,10,53,12.80
2007,10,01,10,54,12.80
2007,10,01,10,55,12.80
2007,10,01,10,56,12.90
2007,10,01,10,57,12.90
2007,10,01,10,58,12.90
2007,10,01,10,59,12.90
2007,10,01,11,00,12.90
2007,10,01,11,01,13.00
2007,10,01,11,02,13.00
2007,10,01,11,03,13.00
2007,10,01,11,04,13.00
2007,10,01,11,05,13.00
2007,10,01,11,06,13.00
2007,10,01,11,07,13.10
2007,10,01,11,08,13.10
2007,10,01,11,09,13.10
2007,10,01,11,10,13.10
2007,10,01,11,11,13.10
2007,10,01,11,12,13.10
2007,10,01,11,13,13.10
2007,10,01,11,14,13.20
2007,10,01,11,15,13.20
2007,10,01,11,16,13.20
2007,10,01,11,17,13.20
2007,10,01,11,18,13.20
2007,10,01,11,19,13.20
2007,10,01,11,20,13.20
2007,10,01,11,21,13.30
2007,10,01,11,22,13.30
2007,10,01,11,23,13.40
2007,10,01,11,24,13.40
2007,10,01,11,25,13.40
2007,10,01,11,26,13.40
2007,10,01,11,27,13.40
2007,10,01,11,28,13.40
2007,10,01,11,29,13.50
2007,10,01,11,30,13.50
2007,10,01,11,31,13.50
2007,10,01,11,32,13.50
2007,10,01,11,33,13.50
2007,10,01,11,34,13.50
2007,10,01,11,35,13.50
2007,10,01,11,36,13.50
2007,10,01,11,37,13.50
2007,10,01,11,38,13.50
2007,10,01,11,39,13.60
2007,10,01,11,40,13.60
2007,10,01,11,41,13.60
2007,10,01,11,42,13.70
2007,10,01,11,43,13.70
2007,10,01,11,44,13.70
2007,10,01,11,45,13.70
2007,10,01,11,46,13.70
2007,10,01,11,47,13.70
2007,10,01,11,48,13.70
2007,10,01,11,49,13.70
2007,10,01,11,50,13.70
2007,10,01,11,51,13.70
2007,10,01,11,52,13.70
2007,10,01,11,53,13.70
2007,10,01,11,54,13.70
2007,10,01,11,55,13.70
2007,10,01,11,56,13.70
2007,10,01,11,57,13.70
2007,10,01,11,58,13.70
2007,10,01,11,59,13.70
2007,10,01,12,00,13.70
2007,10,01,12,01,13.70
2007,10,01,12,02,13.70
2007,10,01,12,03,13.70
2007,10,01,12,04,13.70
2007,10,01,12,05,13.70
2007,10,01,12,06,13.50
2007,10,01,12,07,13.40
2007,10,01,12,08,13.40
2007,10,01,12,09,13.30
2007,10,01,12,10,13.20
2007,10,01,12,11,13.20
2007,10,01,12,12,13.10
2007,10,01,12,13,13.10
2007,10,01,12,14,13.00
2007,10,01,12,15,13.00
2007,10,01,12,16,13.00
2007,10,01,12,17,12.90
2007,10,01,12,18,12.90
2007,10,01,12,19,12.80
2007,10,01,12,20,12.80
2007,10,01,12,21,12.80
2007,10,01,12,22,12.80
2007,10,01,12,23,12.80
2007,10,01,12,24,12.80
2007,10,01,12,25,12.80
2007,10,01,12,26,12.80
2007,10,01,12,27,12.80
2007,10,01,12,28,12.80
2007,10,01,12,29,12.80
2007,10,01,12,30,12.80
2007,10,01,12,31,12.80
2007,10,01,12,32,12.80
2007,10,01,12,33,12.80
2007,10,01,12,34,12.80
2007,10,01,12,35,12.80
2007,10,01,12,36,12.80
2007,10,01,12,37,12.80
2007,10,01,12,38,12.90
2007,10,01,12,39,13.00
2007,10,01,12,40,13.00
2007,10,01,12,41,13.10
2007,10,01,12,42,13.10
2007,10,01,12,43,13.20
2007,10,01,12,44,13.30
2007,10,01,12,45,13.30
2007,10,01,12,46,13.30
2007,10,01,12,47,13.40
2007,10,01,12,48,13.40
2007,10,01,12,49,13.40
2007,10,01,12,50,13.50
2007,10,01,12,51,13.50
2007,10,01,12,52,13.60
2007,10,01,12,53,13.60
2007,10,01,12,54,13.70
2007,10,01,12,55,13.70
2007,10,01,12,56,13.80
2007,10,01,12,57,13.90
2007,10,01,12,58,13.90
2007,10,01,12,59,13.90
2007,10,01,13,00,13.90
2007,10,01,13,01,13.90
2007,10,01,13,02,13.80
2007,10,01,13,03,13.80
2007,10,01,13,04,13.70
2007,10,01,13,05,13.70
2007,10,01,13,06,13.70
2007,10,01,13,07,13.70
2007,10,01,13,08,13.70
2007,10,01,13,09,13.70
2007,10,01,13,10,13.70
2007,10,01,13,11,13.70
2007,10,01,13,12,13.60
2007,10,01,13,13,13.60
2007,10,01,13,14,13.60
2007,10,01,13,15,13.60
2007,10,01,13,16,13.60
2007,10,01,13,17,13.60
2007,10,01,13,18,13.70
2007,10,01,13,19,13.70
2007,10,01,13,20,13.70
2007,10,01,13,21,13.70
2007,10,01,13,22,13.70
2007,10,01,13,23,13.70
2007,10,01,13,24,13.70
2007,10,01,13,25,13.70
2007,10,01,13,26,13.70
2007,10,01,13,27,13.80
2007,10,01,13,28,13.90
2007,10,01,13,29,13.90
2007,10,01,13,30,14.00
2007,10,01,13,31,14.10
2007,10,01,13,32,14.20
2007,10,01,13,33,14.30
2007,10,01,13,34,14.40
2007,10,01,13,35,14.50
2007,10,01,13,36,14.60
2007,10,01,13,37,14.60
2007,10,01,13,38,14.60
2007,10,01,13,39,14.60
2007,10,01,13,40,14.60
2007,10,01,13,41,14.60
2007,10,01,13,42,14.50
2007,10,01,13,43,14.50
2007,10,01,13,44,14.50
2007,10,01,13,45,14.50
2007,10,01,13,46,14.40
2007,10,01,13,47,14.40
2007,10,01,13,48,14.40
2007,10,01,13,49,14.30
2007,10,01,13,50,14.30
2007,10,01,13,51,14.20
2007,10,01,13,52,14.20
2007,10,01,13,53,14.20
2007,10,01,13,54,14.20
2007,10,01,13,55,14.20
2007,10,01,13,56,14.20
2007,10,01,13,57,14.20
2007,10,01,13,58,14.20
2007,10,01,13,59,14.20
2007,10,01,14,00,14.20
2007,10,01,14,01,14.20
2007,10,01,14,02,14.20
2007,10,01,14,03,14.20
2007,10,01,14,04,14.20
2007,10,01,14,05,14.10
2007,10,01,14,06,14.10
2007,10,01,14,07,14.20
2007,10,01,14,08,14.20
2007,10,01,14,09,14.20
2007,10,01,14,10,14.20
2007,10,01,14,11,14.20
2007,10,01,14,12,14.20
2007,10,01,14,13,14.20
2007,10,01,14,14,14.20
2007,10,01,14,15,14.20
2007,10,01,14,16,14.20
2007,10,01,14,17,14.20
2007,10,01,14,18,14.20
2007,10,01,14,19,14.20
2007,10,01,14,20,14.10
2007,10,01,14,21,14.10
2007,10,01,14,22,14.00
2007,10,01,14,23,13.90
2007,10,01,14,24,13.80
2007,10,01,14,25,13.70
2007,10,01,14,26,13.60
2007,10,01,14,27,13.50
2007,10,01,14,28,13.40
2007,10,01,14,29,13.30
2007,10,01,14,30,13.30
2007,10,01,14,31,13.30
2007,10,01,14,32,13.20
2007,10,01,14,33,13.20
2007,10,01,14,34,13.20
2007,10,01,14,35,13.30
2007,10,01,14,36,13.30
2007,10,01,14,37,13.30
2007,10,01,14,38,13.30
2007,10,01,14,39,13.40
2007,10,01,14,40,13.40
2007,10,01,14,41,13.50
2007,10,01,14,42,13.50
2007,10,01,14,43,13.60
2007,10,01,14,44,13.70
2007,10,01,14,45,13.70
2007,10,01,14,46,13.70
2007,10,01,14,47,13.70
2007,10,01,14,48,13.70
2007,10,01,14,49,13.70
2007,10,01,14,50,13.70
2007,10,01,14,51,13.70
2007,10,01,14,52,13.70
2007,10,01,14,53,13.70
2007,10,01,14,54,13.70
2007,10,01,14,55,13.70
2007,10,01,14,56,13.70
2007,10,01,14,57,13.70
2007,10,01,14,58,13.70
2007,10,01,14,59,13.70
2007,10,01,15,00,13.70
2007,10,01,15,01,13.70
2007,10,01,15,02,13.70
2007,10,01,15,03,13.70
2007,10,01,15,04,13.70
2007,10,01,15,05,13.70
2007,10,01,15,06,13.80
2007,10,01,15,07,13.80
2007,10,01,15,08,13.80
2007,10,01,15,09,13.80
2007,10,01,15,10,13.80
2007,10,01,15,11,13.80
2007,10,01,15,12,13.80
2007,10,01,15,13,13.80
2007,10,01,15,14,13.80
2007,10,01,15,15,13.90
2007,10,01,15,16,13.80
2007,10,01,15,17,13.80
2007,10,01,15,18,13.80
2007,10,01,15,19,13.80
2007,10,01,15,20,13.80
2007,10,01,15,21,13.80
2007,10,01,15,22,13.80
2007,10,01,15,23,13.80
2007,10,01,15,24,13.80
2007,10,01,15,25,13.80
2007,10,01,15,26,13.80
2007,10,01,15,27,13.90
2007,10,01,15,28,13.90
2007,10,01,15,29,13.90
2007,10,01,15,30,13.90
2007,10,01,15,31,13.90
2007,10,01,15,32,13.90
2007,10,01,15,33,13.90
2007,10,01,15,34,13.80
2007,10,01,15,35,13.80
2007,10,01,15,36,13.80
2007,10,01,15,37,13.80
2007,10,01,15,38,13.80
2007,10,01,15,39,13.80
2007,10,01,15,40,13.80
2007,10,01,15,41,13.80
2007,10,01,15,42,13.80
2007,10,01,15,43,13.80
2007,10,01,15,44,13.80
2007,10,01,15,45,13.80
2007,10,01,15,46,13.80
2007,10,01,15,47,13.80
2007,10,01,15,48,13.80
2007,10,01,15,49,13.90
2007,10,01,15,50,13.90
2007,10,01,15,51,13.90
2007,10,01,15,52,13.90
2007,10,01,15,53,13.90
2007,10,01,15,54,13.90
2007,10,01,15,55,13.90
2007,10,01,15,56,13.90
2007,10,01,15,57,13.90
2007,10,01,15,58,14.00
2007,10,01,15,59,14.00
2007,10,01,16,00,14.00
2007,10,01,16,01,14.00
2007,10,01,16,02,14.00
2007,10,01,16,03,14.00
2007,10,01,16,04,14.00
2007,10,01,16,05,14.10
2007,10,01,16,06,14.10
2007,10,01,16,07,14.10
2007,10,01,16,08,14.10
2007,10,01,16,09,14.10
2007,10,01,16,10,14.10
2007,10,01,16,11,14.10
2007,10,01,16,12,14.10
2007,10,01,16,13,14.10
2007,10,01,16,14,14.10
2007,10,01,16,15,14.10
2007,10,01,16,16,14.10
2007,10,01,16,17,14.10
2007,10,01,16,18,14.10
2007,10,01,16,19,14.10
2007,10,01,16,20,14.10
2007,10,01,16,21,14.10
2007,10,01,16,22,14.10
2007,10,01,16,23,14.10
2007,10,01,16,24,14.10
2007,10,01,16,25,14.10
2007,10,01,16,26,14.10
2007,10,01,16,27,14.10
2007,10,01,16,28,14.10
2007,10,01,16,29,14.10
2007,10,01,16,30,14.10
2007,10,01,16,31,14.10
2007,10,01,16,32,14.10
2007,10,01,16,33,14.10
